Henderson, NV

9:53 AM PST on December 07, 2016 (GMT -0800)
Henderson

Weather History for KHND - June, 2013

Change the Weather History Date:

Friday, June 14, 2013

  Actual Average (KLAS) Record (KLAS)
Temperature  
Mean Temperature 86 °F 86 °F  
Max Temperature 100 °F 98 °F 115 °F (1940)
Min Temperature 73 °F 74 °F 55 °F (1943)
Degree Days  
Heating Degree Days 0 0  
Month to date heating degree days 0  
Since 1 June heating degree days 0  
Since 1 July heating degree days 1950  
Cooling Degree Days 22 21  
Month to date cooling degree days 270  
Year to date cooling degree days 820  
Since 1 June cooling degree days 270  
Growing Degree Days 36 (Base 50)    
Moisture  
Dew Point 11 °F    
Average Humidity 7    
Maximum Humidity 13    
Minimum Humidity 4    
Precipitation  
Precipitation 0.00 in 0.01 in 0.00 in (2016)
Month to date precipitation 0.04  
Year to date precipitation 2.05  
Snow  
Snow 0.00 in 0.00 in 0.00 in ()
Month to date snowfall 0.0  
Since 1 June snowfall 0.0  
Since 1 July snowfall 0.3  
Snow Depth -    
Sea Level Pressure  
Sea Level Pressure 29.75 in    
Wind  
Wind Speed 11 mph (SSW)    
Max Wind Speed 17 mph    
Max Gust Speed 17 mph    
Visibility 10 miles    
Events Rain    
T = Trace of Precipitation, MM = Missing Value Source: NWS Daily Summary

Daily Weather History Graph

Daily Weather History Graph

Search for Another Location

Airport or City:

Trip Planner

Search our weather history database for the weather conditions in past years. The results will help you decide how hot, cold, wet, or windy it might be!

Date:

Astronomy

Jun. 14, 2013 Rise Set
Actual Time 5:23 AM PDT 7:58 PM PDT
Civil Twilight 4:53 AM PDT 8:28 PM PDT
Nautical Twilight 4:15 AM PDT 9:06 PM PDT
Astronomical Twilight 3:33 AM PDT 9:48 PM PDT
Moon 10:53 AM PDT (6/14) 11:47 PM PDT (6/14)
Length of Visible Light 15h 35m
Length of Day
14h 35m
Waxing Crescent, 31% of the Moon is Illuminated
Jun 14
Waxing Crescent
Jun 16
First Quarter
Jun 23
Full
Jun 29
Last Quarter
Jul 8
New

Hourly Weather History & Observations

Time (PDT) Temp. Dew Point Humidity Pressure Visibility Wind Dir Wind Speed Gust Speed Precip Events Conditions
12:56 AM 81.9 °F 13.1 °F 8% 29.76 in 10.0 mi South 16.1 mph - N/A   Clear
1:56 AM 79.0 °F 19.0 °F 11% 29.76 in 10.0 mi South 15.0 mph - N/A   Clear
2:56 AM 75.9 °F 21.0 °F 13% 29.76 in 10.0 mi South 15.0 mph - N/A   Clear
3:56 AM 75.9 °F 21.0 °F 13% 29.77 in 10.0 mi South 17.3 mph - 0.00 in Rain Heavy Rain
4:56 AM 73.9 °F 19.0 °F 13% 29.78 in 10.0 mi South 12.7 mph - 0.00 in   Clear
5:56 AM 73.9 °F 19.0 °F 13% 29.81 in 10.0 mi South 4.6 mph - N/A   Clear
6:56 AM 77.9 °F 18.1 °F 11% 29.81 in 10.0 mi South 10.4 mph - 0.00 in   Clear
7:56 AM 81.9 °F 16.2 °F 9% 29.82 in 10.0 mi SW 9.2 mph - N/A   Clear
8:56 AM 86.0 °F 11.1 °F 6% 29.82 in 10.0 mi SW 6.9 mph - N/A   Clear
9:56 AM 88.9 °F 9.1 °F 5% 29.81 in 10.0 mi Calm Calm - N/A   Clear
10:56 AM 91.9 °F 7.2 °F 4% 29.81 in 10.0 mi NE 8.1 mph - N/A   Clear
11:56 AM 91.9 °F 6.1 °F 4% 29.80 in 10.0 mi North 5.8 mph - N/A   Clear
12:56 PM 95.0 °F 8.1 °F 4% 29.77 in 10.0 mi NE 3.5 mph - N/A   Clear
1:56 PM 99.0 °F 10.0 °F 4% 29.74 in 10.0 mi Variable 5.8 mph - N/A   Clear
2:56 PM 99.9 °F 11.1 °F 4% 29.71 in 10.0 mi West 8.1 mph - N/A   Clear
3:56 PM 100.9 °F 12.0 °F 4% 29.69 in 10.0 mi West 9.2 mph 17.3 mph N/A   Clear
4:56 PM 100.9 °F 12.0 °F 4% 29.67 in 10.0 mi WSW 16.1 mph - N/A   Clear
5:56 PM 99.9 °F 11.1 °F 4% 29.66 in 10.0 mi WSW 15.0 mph - N/A   Clear
6:56 PM 97.9 °F 10.0 °F 4% 29.66 in 10.0 mi West 15.0 mph - N/A   Clear
7:56 PM 93.9 °F 7.2 °F 4% 29.67 in 10.0 mi SW 10.4 mph - N/A   Clear
8:56 PM 88.9 °F 4.1 °F 4% 29.69 in 10.0 mi SW 10.4 mph - N/A   Clear
9:56 PM 83.8 °F 0.1 °F 4% 29.71 in 10.0 mi South 9.2 mph - N/A   Clear
10:56 PM 82.9 °F -0.9 °F 4% 29.72 in 10.0 mi Calm Calm - N/A   Clear
11:56 PM 77.9 °F -4.0 °F 4% 29.72 in 10.0 mi South 9.2 mph - N/A   Clear